User: anonymous   Login
Location: Unspecified
(43.4354°N, 0.0000°E)
Time: 09:51:24
(UTC+00:00)
Language:

SR - Orbit

View from above orbital plane
View from above orbital plane
View from above satellite
View from above satellite

Ground track
Ground track

The orbit data is extracted from the following two-line orbital elements,

1    46U 60007B   19169.74423704 -.00000099 +00000-0 +34144-5 0  9990
2    46 066.6909 311.9437 0205184 041.4304 320.2156 14.49230579086267
Epoch (UTC): 18 June 2019 17:51:42
Eccentricity: 0.0205184
inclination: 66.6909°
perigee height: 582 km
apogee height: 874 km
right ascension of ascending node: 311.9437°
argument of perigee: 41.4304°
revolutions per day: 14.49230579
mean anomaly at epoch: 320.2156°
orbit number at epoch: 8626

The dashed part of the orbit path shows where the satellite is in the earth's shadow,  

DLR